Regional Weather Roundup
Issued by NWS Cleveland, OH

Home | Current Version | Previous Version | Text Only | Print | Product List | Glossary Off
Versions: 1 2 3 4 5 6 7 8 9 10 11 12 13 14 15 16 17 18 19 20 21 22 23 24 25 26 27 28 29 30 31 32 33 34 35 36 37 38 39 40 41 42 43 44 45 46 47 48 49 50

000
ASUS41 KCLE 211002
RWRCLE
OHIO REGIONAL WEATHER ROUNDUP
NATIONAL WEATHER SERVICE CLEVELAND, OH
500 AM EST SAT JAN 21 2017

NOTE: "FAIR" INDICATES FEW OR NO CLOUDS BELOW 12,000 FEET WITH NO
SIGNIFICANT WEATHER AND/OR OBSTRUCTIONS TO VISIBILITY.

OHZ001>008-015>018-024>027-034-035-043-044-211100-
   NORTHWEST OHIO

CITY           SKY/WX    TMP DP  RH WIND       PRES   REMARKS
DEFIANCE       CLOUDY    48  46  93 S3        29.69F
FINDLAY        CLOUDY    50  45  83 S12       29.71S
TOLEDO EXPRESS CLOUDY    46  46 100 CALM      29.70F
TOLEDO EXEC    CLOUDY    49  47  93 S9        29.71F
LIMA           PTCLDY    49  47  93 S9        29.71F
$$

OHZ009>014-019>023-028>033-038-089-211100-
   NORTHEAST OHIO

CITY           SKY/WX    TMP DP  RH WIND       PRES   REMARKS
CLE-HOPKINS    CLOUDY    49  44  83 S9        29.77F
CLE-LAKEFRONT  CLOUDY    49  45  86 SE13      29.74F
CUY CO. ARPT   NOT AVBL
LORAIN-ELYRIA  CLOUDY    47  43  86 S10       29.75F
ASHTABULA      PTCLDY    45  45 100 SE3       29.78F FOG
AKRON-CANTON   FOG       44  43  96 SE6       29.78S VSB 3/4
WOOSTER        FOG       39  38  96 SE3       29.77F VSB 1/2
MANSFIELD      CLOUDY    49  47  93 S9        29.75F
YOUNGSTOWN     FOG       39  37  92 SE7       29.79S VSB 1/2
$$

OHZ042-051>053-060>062-070>072-077>081-211100-
  SOUTHWEST OHIO

CITY           SKY/WX    TMP DP  RH WIND       PRES   REMARKS
CINC-COVINGTON PTCLDY    50  46  86 S8        29.71F
CINC-LUNKEN    FOG       43  43 100 CALM      29.73F VSB 1/2
HAMILTON       PTCLDY    47  46  97 E6        29.72F
DAYTON         PTCLDY    45  43  93 SE8       29.72F
WRIGHT-PAT AFB PTCLDY    48  48 100 CALM      29.71F
DAYTON GENERAL NOT AVBL
WILMINGTON     CLOUDY    49  46  90 S6        29.72F
$$

OHZ036-037-039>041-045>050-054>059-063>069-073>076-082>088-211100-
  CENTRAL AND SOUTHEAST OHIO

CITY           SKY/WX    TMP DP  RH WIND       PRES   REMARKS
COLUMBUS       PTCLDY    52  47  83 SE8       29.75F
OSU AIRPORT    PTCLDY    47  46  97 SE6       29.75S
BOLTON FIELD   NOT AVBL
RICKENBACK AFB   N/A     45  45 100 CALM      29.75F
NEWARK         FOG       40  38  93 CALM      29.77S VSB 3/4
MARION         MOCLDY    49  46  90 S8        29.75F
LANCASTER      PTCLDY    46  44  93 SE6       29.77F
ZANESVILLE     PTCLDY    41  40  96 CALM      29.79S
NEW PHILLY     NOT AVBL
$$




USA.gov is the U.S. government's official web portal to all federal, state and local government web resources and services.